User: anonymous   Login
Location: Unspecified
(0.0000°N, 0.0000°E)
Time: 20:56:24
(UTC+02:00)
Language:

Meteor PRIRODA - Orbit

View from above orbital plane
View from above orbital plane
View from above satellite
View from above satellite

Ground track
Ground track

The orbit data is extracted from the following two-line orbital elements,

1 12585U 81065A   16242.93724662 +.00001319 +00000-0 +64926-4 0  9990
2 12585 097.3956 221.2301 0014515 345.1196 014.9609 15.19659480912210
Epoch (UTC): 29 August 2016 22:29:38
Eccentricity: 0.0014515
inclination: 97.3956°
perigee height: 497 km
apogee height: 517 km
right ascension of ascending node: 221.2301°
argument of perigee: 345.1196°
revolutions per day: 15.19659480
mean anomaly at epoch: 14.9609°
orbit number at epoch: 91221

The dashed part of the orbit path shows where the satellite is in the earth's shadow,  

DLR